Location: Gökben Yaylas?
(36.8988°N, 29.6291°E)
Time: 07:51:53
(UTC+00:00)

Cosmos 1634 Rocket - Pass Details

Date: 15 May 2026
Orbit: 960 x 990 km, 82.9° (Epoch: 5 June)

Event Time Altitude Azimuth Distance (km) Brightness Sun altitude
Exits shadow 20:37:56 76° 14° (NNE) 992 4.0 -31.0°
Drops below altitude 10° 20:43:36 10° 7° (N) 2,710 7.0 -31.4°
Sets 20:46:07 0° 7° (N) 3,664 7.9 -31.6°
